Year,Month,Day,Hour,Minute,Value (Times are PST for windspeed in km/hr)
2007,01,08,00,00,5.50
2007,01,08,00,01,5.30
2007,01,08,00,02,3.00
2007,01,08,00,03,3.60
2007,01,08,00,04,3.90
2007,01,08,00,05,5.00
2007,01,08,00,06,6.40
2007,01,08,00,07,5.90
2007,01,08,00,08,3.90
2007,01,08,00,09,3.50
2007,01,08,00,10,3.50
2007,01,08,00,11,3.50
2007,01,08,00,12,1.30
2007,01,08,00,13,1.80
2007,01,08,00,14,4.10
2007,01,08,00,15,2.50
2007,01,08,00,16,0.80
2007,01,08,00,17,1.40
2007,01,08,00,18,3.50
2007,01,08,00,19,5.60
2007,01,08,00,20,4.70
2007,01,08,00,21,5.10
2007,01,08,00,22,7.70
2007,01,08,00,23,7.70
2007,01,08,00,24,4.70
2007,01,08,00,25,5.50
2007,01,08,00,26,5.40
2007,01,08,00,27,7.10
2007,01,08,00,28,7.40
2007,01,08,00,29,6.00
2007,01,08,00,30,7.70
2007,01,08,00,31,6.10
2007,01,08,00,32,8.00
2007,01,08,00,33,8.30
2007,01,08,00,34,8.10
2007,01,08,00,35,6.80
2007,01,08,00,36,7.90
2007,01,08,00,37,7.10
2007,01,08,00,38,7.10
2007,01,08,00,39,5.50
2007,01,08,00,40,6.40
2007,01,08,00,41,5.30
2007,01,08,00,42,6.10
2007,01,08,00,43,7.10
2007,01,08,00,44,5.50
2007,01,08,00,45,5.60
2007,01,08,00,46,4.90
2007,01,08,00,47,5.80
2007,01,08,00,48,5.30
2007,01,08,00,49,6.30
2007,01,08,00,50,7.30
2007,01,08,00,51,6.80
2007,01,08,00,52,7.50
2007,01,08,00,53,5.80
2007,01,08,00,54,5.70
2007,01,08,00,55,7.50
2007,01,08,00,56,4.60
2007,01,08,00,57,6.10
2007,01,08,00,58,5.40
2007,01,08,00,59,7.20
2007,01,08,01,00,6.00
2007,01,08,01,01,5.60
2007,01,08,01,02,7.40
2007,01,08,01,03,5.80
2007,01,08,01,04,5.80
2007,01,08,01,05,4.80
2007,01,08,01,06,5.10
2007,01,08,01,07,4.50
2007,01,08,01,08,3.90
2007,01,08,01,09,4.30
2007,01,08,01,10,4.50
2007,01,08,01,11,4.30
2007,01,08,01,12,4.50
2007,01,08,01,13,3.90
2007,01,08,01,14,4.50
2007,01,08,01,15,2.90
2007,01,08,01,16,3.60
2007,01,08,01,17,4.30
2007,01,08,01,18,5.40
2007,01,08,01,19,3.10
2007,01,08,01,20,3.40
2007,01,08,01,21,3.40
2007,01,08,01,22,4.70
2007,01,08,01,23,4.30
2007,01,08,01,24,2.90
2007,01,08,01,25,2.80
2007,01,08,01,26,4.50
2007,01,08,01,27,5.20
2007,01,08,01,28,5.60
2007,01,08,01,29,6.30
2007,01,08,01,30,5.50
2007,01,08,01,31,4.90
2007,01,08,01,32,3.50
2007,01,08,01,33,4.10
2007,01,08,01,34,4.20
2007,01,08,01,35,3.70
2007,01,08,01,36,3.10
2007,01,08,01,37,4.30
2007,01,08,01,38,3.30
2007,01,08,01,39,3.90
2007,01,08,01,40,4.20
2007,01,08,01,41,4.70
2007,01,08,01,42,3.00
2007,01,08,01,43,4.90
2007,01,08,01,44,5.50
2007,01,08,01,45,4.20
2007,01,08,01,46,5.10
2007,01,08,01,47,4.20
2007,01,08,01,48,4.10
2007,01,08,01,49,4.50
2007,01,08,01,50,3.80
2007,01,08,01,51,4.10
2007,01,08,01,52,4.40
2007,01,08,01,53,4.30
2007,01,08,01,54,4.30
2007,01,08,01,55,5.40
2007,01,08,01,56,4.40
2007,01,08,01,57,5.10
2007,01,08,01,58,4.50
2007,01,08,01,59,5.60
2007,01,08,02,00,5.90
2007,01,08,02,01,4.00
2007,01,08,02,02,1.80
2007,01,08,02,03,3.90
2007,01,08,02,04,4.20
2007,01,08,02,05,1.70
2007,01,08,02,06,4.30
2007,01,08,02,07,3.50
2007,01,08,02,08,2.30
2007,01,08,02,09,1.30
2007,01,08,02,10,0.60
2007,01,08,02,11,1.30
2007,01,08,02,12,1.50
2007,01,08,02,13,2.90
2007,01,08,02,14,3.00
2007,01,08,02,15,3.70
2007,01,08,02,16,4.50
2007,01,08,02,17,4.10
2007,01,08,02,18,3.70
2007,01,08,02,19,3.20
2007,01,08,02,20,5.10
2007,01,08,02,21,5.60
2007,01,08,02,22,4.10
2007,01,08,02,23,4.20
2007,01,08,02,24,3.10
2007,01,08,02,25,3.90
2007,01,08,02,26,5.50
2007,01,08,02,27,4.90
2007,01,08,02,28,4.30
2007,01,08,02,29,4.30
2007,01,08,02,30,3.40
2007,01,08,02,31,3.30
2007,01,08,02,32,2.80
2007,01,08,02,33,5.10
2007,01,08,02,34,3.50
2007,01,08,02,35,3.20
2007,01,08,02,36,3.30
2007,01,08,02,37,3.80
2007,01,08,02,38,3.50
2007,01,08,02,39,1.90
2007,01,08,02,40,2.20
2007,01,08,02,41,2.90
2007,01,08,02,42,2.80
2007,01,08,02,43,3.30
2007,01,08,02,44,3.10
2007,01,08,02,45,1.90
2007,01,08,02,46,3.90
2007,01,08,02,47,3.90
2007,01,08,02,48,5.70
2007,01,08,02,49,5.10
2007,01,08,02,50,3.40
2007,01,08,02,51,4.30
2007,01,08,02,52,4.30
2007,01,08,02,53,5.10
2007,01,08,02,54,5.10
2007,01,08,02,55,4.30
2007,01,08,02,56,4.80
2007,01,08,02,57,6.50
2007,01,08,02,58,5.10
2007,01,08,02,59,4.20
2007,01,08,03,00,5.50
2007,01,08,03,01,3.90
2007,01,08,03,02,2.10
2007,01,08,03,03,2.50
2007,01,08,03,04,1.90
2007,01,08,03,05,2.20
2007,01,08,03,06,2.00
2007,01,08,03,07,2.40
2007,01,08,03,08,0.20
2007,01,08,03,09,0.50
2007,01,08,03,10,1.80
2007,01,08,03,11,1.80
2007,01,08,03,12,1.10
2007,01,08,03,13,2.70
2007,01,08,03,14,2.70
2007,01,08,03,15,0.10
2007,01,08,03,16,1.60
2007,01,08,03,17,3.40
2007,01,08,03,18,2.20
2007,01,08,03,19,4.00
2007,01,08,03,20,3.00
2007,01,08,03,21,3.60
2007,01,08,03,22,0.50
2007,01,08,03,23,0.70
2007,01,08,03,24,1.70
2007,01,08,03,25,1.50
2007,01,08,03,26,2.70
2007,01,08,03,27,1.70
2007,01,08,03,28,1.40
2007,01,08,03,29,1.60
2007,01,08,03,30,2.60
2007,01,08,03,31,1.70
2007,01,08,03,32,2.30
2007,01,08,03,33,2.50
2007,01,08,03,34,1.40
2007,01,08,03,35,2.70
2007,01,08,03,36,2.70
2007,01,08,03,37,1.90
2007,01,08,03,38,3.40
2007,01,08,03,39,2.00
2007,01,08,03,40,0.10
2007,01,08,03,41,0.00
2007,01,08,03,42,0.60
2007,01,08,03,43,0.80
2007,01,08,03,44,0.60
2007,01,08,03,45,0.00
2007,01,08,03,46,0.00
2007,01,08,03,47,0.90
2007,01,08,03,48,1.00
2007,01,08,03,49,0.50
2007,01,08,03,50,1.10
2007,01,08,03,51,1.60
2007,01,08,03,52,1.70
2007,01,08,03,53,0.40
2007,01,08,03,54,0.60
2007,01,08,03,55,0.00
2007,01,08,03,56,0.40
2007,01,08,03,57,0.30
2007,01,08,03,58,0.00
2007,01,08,03,59,1.10
2007,01,08,04,00,2.70
2007,01,08,04,01,3.20
2007,01,08,04,02,2.70
2007,01,08,04,03,3.10
2007,01,08,04,04,3.40
2007,01,08,04,05,3.10
2007,01,08,04,06,3.30
2007,01,08,04,07,4.00
2007,01,08,04,08,3.70
2007,01,08,04,09,1.90
2007,01,08,04,10,2.50
2007,01,08,04,11,2.20
2007,01,08,04,12,2.30
2007,01,08,04,13,1.90
2007,01,08,04,14,2.10
2007,01,08,04,15,1.80
2007,01,08,04,16,1.00
2007,01,08,04,17,0.80
2007,01,08,04,18,1.70
2007,01,08,04,19,2.50
2007,01,08,04,20,1.00
2007,01,08,04,21,0.50
2007,01,08,04,22,1.30
2007,01,08,04,23,2.00
2007,01,08,04,24,2.90
2007,01,08,04,25,2.10
2007,01,08,04,26,2.70
2007,01,08,04,27,2.50
2007,01,08,04,28,1.80
2007,01,08,04,29,2.50
2007,01,08,04,30,3.80
2007,01,08,04,31,2.70
2007,01,08,04,32,4.10
2007,01,08,04,33,4.70
2007,01,08,04,34,4.00
2007,01,08,04,35,3.70
2007,01,08,04,36,4.70
2007,01,08,04,37,3.80
2007,01,08,04,38,2.80
2007,01,08,04,39,2.40
2007,01,08,04,40,2.40
2007,01,08,04,41,0.30
2007,01,08,04,42,2.70
2007,01,08,04,43,3.90
2007,01,08,04,44,3.40
2007,01,08,04,45,4.00
2007,01,08,04,46,4.10
2007,01,08,04,47,2.50
2007,01,08,04,48,3.10
2007,01,08,04,49,3.70
2007,01,08,04,50,4.30
2007,01,08,04,51,4.20
2007,01,08,04,52,2.90
2007,01,08,04,53,2.90
2007,01,08,04,54,3.50
2007,01,08,04,55,4.70
2007,01,08,04,56,4.20
2007,01,08,04,57,3.10
2007,01,08,04,58,3.20
2007,01,08,04,59,3.60
2007,01,08,05,00,5.50
2007,01,08,05,01,3.00
2007,01,08,05,02,3.40
2007,01,08,05,03,3.70
2007,01,08,05,04,2.90
2007,01,08,05,05,3.90
2007,01,08,05,06,6.50
2007,01,08,05,07,5.70
2007,01,08,05,08,5.00
2007,01,08,05,09,4.20
2007,01,08,05,10,2.40
2007,01,08,05,11,3.30
2007,01,08,05,12,3.80
2007,01,08,05,13,4.70
2007,01,08,05,14,4.90
2007,01,08,05,15,4.30
2007,01,08,05,16,4.60
2007,01,08,05,17,3.50
2007,01,08,05,18,3.90
2007,01,08,05,19,3.00
2007,01,08,05,20,2.90
2007,01,08,05,21,3.10
2007,01,08,05,22,3.40
2007,01,08,05,23,3.40
2007,01,08,05,24,3.20
2007,01,08,05,25,3.80
2007,01,08,05,26,3.20
2007,01,08,05,27,2.70
2007,01,08,05,28,4.30
2007,01,08,05,29,4.00
2007,01,08,05,30,4.30
2007,01,08,05,31,5.40
2007,01,08,05,32,6.00
2007,01,08,05,33,4.80
2007,01,08,05,34,4.80
2007,01,08,05,35,4.50
2007,01,08,05,36,5.50
2007,01,08,05,37,6.30
2007,01,08,05,38,6.00
2007,01,08,05,39,5.30
2007,01,08,05,40,4.10
2007,01,08,05,41,4.00
2007,01,08,05,42,5.20
2007,01,08,05,43,4.20
2007,01,08,05,44,3.70
2007,01,08,05,45,4.40
2007,01,08,05,46,5.10
2007,01,08,05,47,4.10
2007,01,08,05,48,4.10
2007,01,08,05,49,4.20
2007,01,08,05,50,5.10
2007,01,08,05,51,6.00
2007,01,08,05,52,5.10
2007,01,08,05,53,5.10
2007,01,08,05,54,4.90
2007,01,08,05,55,4.30
2007,01,08,05,56,2.90
2007,01,08,05,57,2.40
2007,01,08,05,58,4.50
2007,01,08,05,59,4.50
2007,01,08,06,00,1.30
2007,01,08,06,01,1.30
2007,01,08,06,02,2.30
2007,01,08,06,03,1.70
2007,01,08,06,04,2.50
2007,01,08,06,05,1.40
2007,01,08,06,06,2.60
2007,01,08,06,07,2.90
2007,01,08,06,08,4.90
2007,01,08,06,09,4.10
2007,01,08,06,10,3.10
2007,01,08,06,11,3.00
2007,01,08,06,12,4.00
2007,01,08,06,13,3.40
2007,01,08,06,14,3.40
2007,01,08,06,15,2.90
2007,01,08,06,16,3.80
2007,01,08,06,17,4.30
2007,01,08,06,18,4.40
2007,01,08,06,19,4.10
2007,01,08,06,20,3.20
2007,01,08,06,21,2.40
2007,01,08,06,22,2.60
2007,01,08,06,23,2.70
2007,01,08,06,24,2.40
2007,01,08,06,25,3.20
2007,01,08,06,26,3.00
2007,01,08,06,27,1.70
2007,01,08,06,28,2.90
2007,01,08,06,29,3.80
2007,01,08,06,30,1.90
2007,01,08,06,31,3.20
2007,01,08,06,32,3.40
2007,01,08,06,33,3.50
2007,01,08,06,34,3.00
2007,01,08,06,35,3.40
2007,01,08,06,36,3.40
2007,01,08,06,37,3.00
2007,01,08,06,38,3.20
2007,01,08,06,39,3.50
2007,01,08,06,40,3.40
2007,01,08,06,41,3.20
2007,01,08,06,42,2.90
2007,01,08,06,43,2.40
2007,01,08,06,44,2.00
2007,01,08,06,45,1.40
2007,01,08,06,46,1.70
2007,01,08,06,47,2.60
2007,01,08,06,48,2.10
2007,01,08,06,49,1.90
2007,01,08,06,50,1.70
2007,01,08,06,51,2.50
2007,01,08,06,52,2.50
2007,01,08,06,53,2.70
2007,01,08,06,54,1.90
2007,01,08,06,55,2.40
2007,01,08,06,56,1.60
2007,01,08,06,57,1.50
2007,01,08,06,58,0.60
2007,01,08,06,59,0.00
2007,01,08,07,00,0.00
2007,01,08,07,01,0.00
2007,01,08,07,02,0.00
2007,01,08,07,03,0.00
2007,01,08,07,04,0.00
2007,01,08,07,05,0.00
2007,01,08,07,06,0.00
2007,01,08,07,07,0.00
2007,01,08,07,08,0.00
2007,01,08,07,09,0.00
2007,01,08,07,10,0.00
2007,01,08,07,11,0.00
2007,01,08,07,12,0.00
2007,01,08,07,13,0.00
2007,01,08,07,14,0.00
2007,01,08,07,15,0.00
2007,01,08,07,16,0.00
2007,01,08,07,17,0.00
2007,01,08,07,18,0.00
2007,01,08,07,19,0.00
2007,01,08,07,20,0.40
2007,01,08,07,21,3.50
2007,01,08,07,22,2.50
2007,01,08,07,23,2.30
2007,01,08,07,24,1.90
2007,01,08,07,25,3.20
2007,01,08,07,26,3.10
2007,01,08,07,27,2.00
2007,01,08,07,28,1.40
2007,01,08,07,29,1.30
2007,01,08,07,30,0.20
2007,01,08,07,31,0.10
2007,01,08,07,32,0.00
2007,01,08,07,33,0.00
2007,01,08,07,34,0.00
2007,01,08,07,35,0.00
2007,01,08,07,36,0.00
2007,01,08,07,37,0.00
2007,01,08,07,38,0.00
2007,01,08,07,39,0.00
2007,01,08,07,40,0.00
2007,01,08,07,41,0.00
2007,01,08,07,42,0.00
2007,01,08,07,43,0.00
2007,01,08,07,44,0.00
2007,01,08,07,45,0.00
2007,01,08,07,46,0.00
2007,01,08,07,47,0.00
2007,01,08,07,48,0.00
2007,01,08,07,49,0.20
2007,01,08,07,50,1.00
2007,01,08,07,51,0.00
2007,01,08,07,52,0.70
2007,01,08,07,53,0.00
2007,01,08,07,54,0.50
2007,01,08,07,55,0.50
2007,01,08,07,56,0.20
2007,01,08,07,57,0.60
2007,01,08,07,58,1.50
2007,01,08,07,59,2.50
2007,01,08,08,00,2.60
2007,01,08,08,01,0.50
2007,01,08,08,02,0.50
2007,01,08,08,03,3.00
2007,01,08,08,04,3.10
2007,01,08,08,05,1.90
2007,01,08,08,06,2.50
2007,01,08,08,07,2.30
2007,01,08,08,08,2.30
2007,01,08,08,09,2.20
2007,01,08,08,10,1.30
2007,01,08,08,11,1.00
2007,01,08,08,12,2.40
2007,01,08,08,13,2.60
2007,01,08,08,14,0.20
2007,01,08,08,15,0.00
2007,01,08,08,16,0.00
2007,01,08,08,17,0.00
2007,01,08,08,18,0.00
2007,01,08,08,19,0.00
2007,01,08,08,20,0.00
2007,01,08,08,21,0.00
2007,01,08,08,22,0.00
2007,01,08,08,23,0.00
2007,01,08,08,24,0.00
2007,01,08,08,25,0.00
2007,01,08,08,26,0.00
2007,01,08,08,27,0.00
2007,01,08,08,28,0.70
2007,01,08,08,29,2.30
2007,01,08,08,30,1.80
2007,01,08,08,31,2.80
2007,01,08,08,32,0.60
2007,01,08,08,33,0.00
2007,01,08,08,34,0.00
2007,01,08,08,35,0.00
2007,01,08,08,36,0.00
2007,01,08,08,37,0.00
2007,01,08,08,38,0.00
2007,01,08,08,39,0.00
2007,01,08,08,40,0.00
2007,01,08,08,41,0.00
2007,01,08,08,42,0.00
2007,01,08,08,43,0.00
2007,01,08,08,44,0.00
2007,01,08,08,45,0.00
2007,01,08,08,46,0.00
2007,01,08,08,47,0.00
2007,01,08,08,48,0.00
2007,01,08,08,49,0.00
2007,01,08,08,50,0.60
2007,01,08,08,51,0.60
2007,01,08,08,52,0.20
2007,01,08,08,53,0.00
2007,01,08,08,54,0.40
2007,01,08,08,55,0.20
2007,01,08,08,56,0.00
2007,01,08,08,57,0.00
2007,01,08,08,58,0.00
2007,01,08,08,59,0.00
2007,01,08,09,00,0.00
2007,01,08,09,01,0.00
2007,01,08,09,02,0.00
2007,01,08,09,03,0.10
2007,01,08,09,04,0.00
2007,01,08,09,05,0.00
2007,01,08,09,06,0.00
2007,01,08,09,07,0.00
2007,01,08,09,08,0.00
2007,01,08,09,09,0.90
2007,01,08,09,10,0.00
2007,01,08,09,11,1.40
2007,01,08,09,12,1.70
2007,01,08,09,13,1.70
2007,01,08,09,14,2.50
2007,01,08,09,15,2.80
2007,01,08,09,16,3.80
2007,01,08,09,17,1.50
2007,01,08,09,18,3.90
2007,01,08,09,19,1.70
2007,01,08,09,20,0.60
2007,01,08,09,21,1.50
2007,01,08,09,22,0.10
2007,01,08,09,23,0.00
2007,01,08,09,24,0.40
2007,01,08,09,25,0.00
2007,01,08,09,26,0.00
2007,01,08,09,27,1.10
2007,01,08,09,28,0.20
2007,01,08,09,29,0.00
2007,01,08,09,30,0.80
2007,01,08,09,31,0.00
2007,01,08,09,32,0.00
2007,01,08,09,33,0.00
2007,01,08,09,34,0.10
2007,01,08,09,35,0.50
2007,01,08,09,36,0.00
2007,01,08,09,37,0.00
2007,01,08,09,38,0.20
2007,01,08,09,39,0.00
2007,01,08,09,40,1.10
2007,01,08,09,41,0.00
2007,01,08,09,42,2.40
2007,01,08,09,43,2.40
2007,01,08,09,44,0.30
2007,01,08,09,45,0.00
2007,01,08,09,46,1.00
2007,01,08,09,47,0.00
2007,01,08,09,48,0.00
